Location: Bukovany
(49.8234°N, 14.6297°E)
Time: 06:07:48
(UTC+00:00)

Cosmos 2344 - Pass Details

Date: 17 November 2025
Orbit: 1197 x 3045 km, 63.3° (Epoch: 10 December)

Event Time Altitude Azimuth Distance (km) Brightness Sun altitude
Rises 18:33:35 0° 316° (NW) 4,224 7.0 -31.7°
Reaches altitude 10° 18:36:06 10° 314° (NW) 3,345 6.4 -32.1°
Maximum altitude 18:44:01 69° 233° (SW) 1,653 4.1 -33.4°
Enters shadow 18:47:33 44° 167° (SSE) 2,231 4.6 -33.9°
